Time,TemperatureF,DewpointF,PressureIn,WindDirection,WindDirectionDegrees,WindSpeedMPH,WindSpeedGustMPH,Humidity,HourlyPrecipIn,Conditions,Clouds,dailyrainin,SoftwareType,DateUTC
2013-06-01 00:03:00,80.0,76.0,30.00,SSE,153,3.0,9.0,87,0.00,,,0.00,,2013-06-01 04:03:00,
2013-06-01 00:12:00,80.0,75.0,29.98,SE,126,1.0,6.0,86,0.00,,,0.00,,2013-06-01 04:12:00,
2013-06-01 00:23:00,80.0,75.0,29.98,SE,126,1.0,6.0,86,0.00,,,0.00,,2013-06-01 04:23:00,
2013-06-01 00:33:00,80.0,75.0,29.98,SE,126,0.0,2.0,86,0.00,,,0.00,,2013-06-01 04:33:00,
2013-06-01 00:42:00,80.0,75.0,29.97,SE,130,1.0,6.0,86,0.00,,,0.00,,2013-06-01 04:42:00,
2013-06-01 00:53:00,80.0,75.0,29.97,SE,130,1.0,6.0,86,0.00,,,0.00,,2013-06-01 04:53:00,
2013-06-01 01:02:00,80.0,75.0,29.97,SE,130,0.0,0.0,86,0.00,,,0.00,,2013-06-01 05:02:00,
2013-06-01 01:12:00,80.0,75.0,29.97,SE,130,0.0,0.0,86,0.00,,,0.00,,2013-06-01 05:12:00,
2013-06-01 01:22:00,80.0,76.0,29.97,ESE,119,0.0,3.0,87,0.00,,,0.00,,2013-06-01 05:22:00,
2013-06-01 01:32:00,80.0,76.0,29.97,ESE,119,0.0,1.0,87,0.00,,,0.00,,2013-06-01 05:32:00,
2013-06-01 01:42:00,80.0,76.0,29.98,ESE,119,0.0,0.0,88,0.00,,,0.00,,2013-06-01 05:42:00,
2013-06-01 01:52:00,80.0,76.0,29.98,ESE,119,0.0,0.0,88,0.00,,,0.00,,2013-06-01 05:52:00,
2013-06-01 02:01:00,80.0,76.0,29.98,ESE,113,0.0,5.0,88,0.00,,,0.00,,2013-06-01 06:01:00,
2013-06-01 02:12:00,79.0,75.0,29.97,ESE,118,1.0,4.0,89,0.00,,,0.00,,2013-06-01 06:12:00,
2013-06-01 02:22:00,79.0,75.0,29.97,ESE,118,1.0,4.0,89,0.00,,,0.00,,2013-06-01 06:22:00,
2013-06-01 02:32:00,79.0,75.0,29.96,ENE,71,0.0,6.0,88,0.00,,,0.00,,2013-06-01 06:32:00,
2013-06-01 02:42:00,79.0,75.0,29.95,East,93,0.0,7.0,89,0.00,,,0.00,,2013-06-01 06:42:00,
2013-06-01 02:52:00,79.0,75.0,29.95,East,93,0.0,7.0,89,0.00,,,0.00,,2013-06-01 06:52:00,
2013-06-01 03:01:00,79.0,75.0,29.95,East,93,0.0,0.0,89,0.00,,,0.00,,2013-06-01 07:01:00,
2013-06-01 03:11:00,79.0,75.0,29.95,East,93,0.0,0.0,89,0.00,,,0.00,,2013-06-01 07:11:00,
2013-06-01 03:22:00,80.0,77.0,29.94,East,86,0.0,5.0,90,0.00,,,0.00,,2013-06-01 07:22:00,
2013-06-01 03:32:00,80.0,77.0,29.94,East,79,1.0,7.0,90,0.00,,,0.00,,2013-06-01 07:32:00,
2013-06-01 03:42:00,80.0,77.0,29.94,SE,124,0.0,4.0,90,0.00,,,0.00,,2013-06-01 07:42:00,
2013-06-01 03:52:00,80.0,77.0,29.94,SE,124,0.0,4.0,90,0.00,,,0.00,,2013-06-01 07:52:00,
2013-06-01 04:02:00,80.0,77.0,29.94,SE,124,1.0,5.0,90,0.00,,,0.00,,2013-06-01 08:02:00,
2013-06-01 04:11:00,80.0,77.0,29.93,SE,124,0.0,0.0,90,0.00,,,0.00,,2013-06-01 08:11:00,
2013-06-01 04:22:00,80.0,77.0,29.93,SE,124,0.0,0.0,90,0.00,,,0.00,,2013-06-01 08:22:00,
2013-06-01 04:32:00,80.0,77.0,29.93,SE,124,0.0,4.0,90,0.00,,,0.00,,2013-06-01 08:32:00,
2013-06-01 04:42:00,80.0,77.0,29.92,SE,129,4.0,8.0,90,0.00,,,0.00,,2013-06-01 08:42:00,
2013-06-01 04:52:00,80.0,77.0,29.92,SE,129,4.0,8.0,90,0.00,,,0.00,,2013-06-01 08:52:00,
2013-06-01 05:01:00,80.0,77.0,29.92,SSE,168,3.0,8.0,90,0.00,,,0.00,,2013-06-01 09:01:00,
2013-06-01 05:12:00,80.0,77.0,29.92,SSE,168,3.0,8.0,90,0.00,,,0.00,,2013-06-01 09:12:00,
2013-06-01 05:21:00,80.0,77.0,29.92,SSE,158,4.0,7.0,90,0.00,,,0.00,,2013-06-01 09:21:00,
2013-06-01 05:33:00,80.0,77.0,29.92,South,178,2.0,7.0,90,0.00,,,0.00,,2013-06-01 09:33:00,
2013-06-01 05:42:00,80.0,77.0,29.92,South,178,2.0,7.0,90,0.00,,,0.00,,2013-06-01 09:42:00,
2013-06-01 05:53:00,80.0,77.0,29.92,SSE,163,2.0,6.0,90,0.00,,,0.00,,2013-06-01 09:53:00,
2013-06-01 06:02:00,80.0,77.0,29.92,SE,142,2.0,6.0,90,0.00,,,0.00,,2013-06-01 10:02:00,
2013-06-01 06:13:00,80.0,77.0,29.92,SE,142,2.0,6.0,90,0.00,,,0.00,,2013-06-01 10:13:00,
2013-06-01 06:22:00,80.0,77.0,29.93,SE,142,0.0,1.0,90,0.00,,,0.00,,2013-06-01 10:22:00,
2013-06-01 06:33:00,80.0,77.0,29.94,SE,142,0.0,4.0,90,0.00,,,0.00,,2013-06-01 10:33:00,
2013-06-01 06:42:00,79.0,76.0,29.94,SE,142,0.0,0.0,90,0.00,,,0.00,,2013-06-01 10:42:00,
2013-06-01 06:52:00,79.0,76.0,29.94,SE,142,0.0,0.0,90,0.00,,,0.00,,2013-06-01 10:52:00,
2013-06-01 07:02:00,79.0,76.0,29.94,SE,142,0.0,3.0,90,0.00,,,0.00,,2013-06-01 11:02:00,
2013-06-01 07:11:00,79.0,76.0,29.94,SE,142,0.0,3.0,90,0.00,,,0.00,,2013-06-01 11:11:00,
2013-06-01 07:21:00,79.0,76.0,29.95,SE,142,0.0,0.0,91,0.00,,,0.00,,2013-06-01 11:21:00,
2013-06-01 07:32:00,79.0,76.0,29.95,SE,142,1.0,5.0,91,0.00,,,0.00,,2013-06-01 11:32:00,
2013-06-01 07:42:00,79.0,76.0,29.96,East,91,2.0,6.0,91,0.00,,,0.00,,2013-06-01 11:42:00,
2013-06-01 07:52:00,79.0,76.0,29.96,East,91,2.0,6.0,91,0.00,,,0.00,,2013-06-01 11:52:00,
2013-06-01 08:01:00,79.0,76.0,29.96,East,91,1.0,6.0,91,0.00,,,0.00,,2013-06-01 12:01:00,
2013-06-01 08:12:00,79.0,76.0,29.96,East,91,1.0,6.0,91,0.00,,,0.00,,2013-06-01 12:12:00,
2013-06-01 08:22:00,80.0,77.0,29.97,ESE,105,3.0,7.0,91,0.00,,,0.00,,2013-06-01 12:22:00,
2013-06-01 08:32:00,81.0,78.0,29.98,NE,37,3.0,7.0,90,0.00,,,0.00,,2013-06-01 12:32:00,
2013-06-01 08:42:00,81.0,77.0,29.98,ENE,69,3.0,9.0,88,0.00,,,0.00,,2013-06-01 12:42:00,
2013-06-01 08:52:00,81.0,77.0,29.98,ENE,69,3.0,9.0,88,0.00,,,0.00,,2013-06-01 12:52:00,
2013-06-01 09:01:00,81.0,77.0,29.98,ENE,67,5.0,9.0,88,0.00,,,0.00,,2013-06-01 13:01:00,
2013-06-01 09:11:00,81.0,77.0,29.98,ENE,67,5.0,9.0,88,0.00,,,0.00,,2013-06-01 13:11:00,
2013-06-01 09:22:00,82.0,78.0,29.98,SE,136,2.0,8.0,87,0.00,,,0.00,,2013-06-01 13:22:00,
2013-06-01 09:32:00,83.0,78.0,29.98,SE,131,4.0,7.0,86,0.00,,,0.00,,2013-06-01 13:32:00,
2013-06-01 09:42:00,84.0,78.0,29.98,East,89,3.0,8.0,83,0.00,,,0.00,,2013-06-01 13:42:00,
2013-06-01 09:52:00,84.0,78.0,29.98,East,89,3.0,8.0,83,0.00,,,0.00,,2013-06-01 13:52:00,
2013-06-01 10:02:00,85.0,79.0,29.98,ESE,121,5.0,8.0,82,0.00,,,0.00,,2013-06-01 14:02:00,
2013-06-01 10:11:00,85.0,79.0,29.98,ESE,121,5.0,8.0,82,0.00,,,0.00,,2013-06-01 14:11:00,
2013-06-01 10:21:00,86.0,79.0,30.00,East,91,5.0,10.0,79,0.00,,,0.00,,2013-06-01 14:21:00,
2013-06-01 10:32:00,86.0,79.0,30.00,East,89,6.0,10.0,79,0.00,,,0.00,,2013-06-01 14:32:00,
2013-06-01 10:42:00,86.0,79.0,30.00,East,89,6.0,10.0,79,0.00,,,0.00,,2013-06-01 14:42:00,
2013-06-01 10:52:00,86.0,78.0,29.99,ESE,110,5.0,10.0,78,0.00,,,0.00,,2013-06-01 14:52:00,
2013-06-01 11:02:00,87.0,79.0,30.00,SSE,153,5.0,9.0,78,0.00,,,0.00,,2013-06-01 15:02:00,
2013-06-01 11:11:00,87.0,79.0,30.00,SSE,153,5.0,9.0,78,0.00,,,0.00,,2013-06-01 15:11:00,
2013-06-01 11:21:00,87.0,79.0,30.01,SE,138,6.0,10.0,77,0.00,,,0.00,,2013-06-01 15:21:00,
2013-06-01 11:33:00,87.0,80.0,30.00,SE,125,7.0,10.0,79,0.00,,,0.00,,2013-06-01 15:33:00,
2013-06-01 11:43:00,87.0,80.0,30.00,SE,125,7.0,10.0,79,0.00,,,0.00,,2013-06-01 15:43:00,
2013-06-01 11:54:00,88.0,80.0,30.00,SE,146,8.0,10.0,78,0.00,,,0.00,,2013-06-01 15:54:00,
2013-06-01 12:03:00,85.0,77.0,30.01,SSE,163,14.0,19.0,78,0.00,,,0.00,,2013-06-01 16:03:00,
2013-06-01 12:12:00,85.0,77.0,30.01,SSE,163,14.0,19.0,78,0.00,,,0.00,,2013-06-01 16:12:00,
2013-06-01 12:23:00,83.0,77.0,30.00,South,172,12.0,20.0,81,0.00,,,0.00,,2013-06-01 16:23:00,
2013-06-01 12:33:00,84.0,78.0,29.99,SSE,167,10.0,16.0,81,0.00,,,0.00,,2013-06-01 16:33:00,
2013-06-01 12:42:00,85.0,78.0,29.99,SSE,158,9.0,15.0,81,0.00,,,0.00,,2013-06-01 16:42:00,
2013-06-01 12:52:00,85.0,78.0,29.99,SSE,158,9.0,15.0,81,0.00,,,0.00,,2013-06-01 16:52:00,
2013-06-01 13:02:00,86.0,78.0,29.99,SE,146,7.0,13.0,76,0.00,,,0.00,,2013-06-01 17:02:00,
2013-06-01 13:12:00,86.0,78.0,29.99,SE,146,7.0,13.0,76,0.00,,,0.00,,2013-06-01 17:12:00,
2013-06-01 13:22:00,86.0,78.0,29.99,SSE,148,5.0,11.0,76,0.00,,,0.00,,2013-06-01 17:22:00,
2013-06-01 13:32:00,87.0,78.0,29.99,SSE,153,5.0,10.0,74,0.00,,,0.00,,2013-06-01 17:32:00,
2013-06-01 13:42:00,87.0,78.0,29.99,SSE,153,5.0,10.0,74,0.00,,,0.00,,2013-06-01 17:42:00,
2013-06-01 13:52:00,87.0,78.0,29.99,SE,139,3.0,7.0,75,0.00,,,0.00,,2013-06-01 17:52:00,
2013-06-01 14:01:00,87.0,78.0,29.98,SSE,167,3.0,7.0,75,0.00,,,0.00,,2013-06-01 18:01:00,
2013-06-01 14:12:00,87.0,78.0,29.98,SSE,167,3.0,7.0,75,0.00,,,0.00,,2013-06-01 18:12:00,
2013-06-01 14:22:00,88.0,77.0,29.98,South,173,5.0,9.0,71,0.00,,,0.00,,2013-06-01 18:22:00,
2013-06-01 14:32:00,89.0,78.0,29.98,SE,144,3.0,7.0,71,0.00,,,0.00,,2013-06-01 18:32:00,
2013-06-01 14:42:00,89.0,78.0,29.98,SE,144,3.0,7.0,71,0.00,,,0.00,,2013-06-01 18:42:00,
2013-06-01 14:52:00,89.0,79.0,29.98,SE,144,6.0,13.0,72,0.00,,,0.00,,2013-06-01 18:52:00,
2013-06-01 15:02:00,90.0,80.0,29.98,SSE,163,5.0,12.0,73,0.00,,,0.00,,2013-06-01 19:02:00,
2013-06-01 15:11:00,90.0,80.0,29.96,East,96,6.0,10.0,72,0.00,,,0.00,,2013-06-01 19:11:00,
2013-06-01 15:21:00,90.0,80.0,29.96,East,96,6.0,10.0,72,0.00,,,0.00,,2013-06-01 19:21:00,
2013-06-01 15:32:00,90.0,80.0,29.96,East,96,6.0,10.0,72,0.00,,,0.00,,2013-06-01 19:32:00,
2013-06-01 15:42:00,90.0,80.0,29.96,East,96,6.0,10.0,72,0.00,,,0.00,,2013-06-01 19:42:00,
2013-06-01 15:52:00,91.0,81.0,29.95,ESE,104,5.0,9.0,72,0.00,,,0.00,,2013-06-01 19:52:00,
2013-06-01 16:02:00,90.0,79.0,29.95,ESE,102,7.0,10.0,71,0.00,,,0.00,,2013-06-01 20:02:00,
2013-06-01 16:12:00,90.0,79.0,29.95,ESE,102,7.0,10.0,71,0.00,,,0.00,,2013-06-01 20:12:00,
2013-06-01 16:21:00,90.0,80.0,29.95,SE,125,5.0,10.0,73,0.00,,,0.00,,2013-06-01 20:21:00,
2013-06-01 16:32:00,90.0,80.0,29.94,ENE,71,5.0,10.0,72,0.00,,,0.00,,2013-06-01 20:32:00,
2013-06-01 16:42:00,89.0,79.0,29.94,SSE,158,5.0,9.0,73,0.00,,,0.00,,2013-06-01 20:42:00,
2013-06-01 16:52:00,89.0,79.0,29.94,SSE,158,5.0,9.0,73,0.00,,,0.00,,2013-06-01 20:52:00,
2013-06-01 17:01:00,88.0,79.0,29.94,SE,131,6.0,11.0,74,0.00,,,0.00,,2013-06-01 21:01:00,
2013-06-01 17:11:00,87.0,78.0,29.94,SSE,149,5.0,11.0,76,0.00,,,0.00,,2013-06-01 21:11:00,
2013-06-01 17:21:00,87.0,78.0,29.94,SSE,149,5.0,11.0,76,0.00,,,0.00,,2013-06-01 21:21:00,
2013-06-01 17:33:00,86.0,78.0,29.94,SSE,158,6.0,10.0,78,0.00,,,0.00,,2013-06-01 21:33:00,
2013-06-01 17:43:00,86.0,78.0,29.94,SSE,158,6.0,10.0,78,0.00,,,0.00,,2013-06-01 21:43:00,
2013-06-01 17:53:00,87.0,79.0,29.94,SSE,158,6.0,10.0,78,0.00,,,0.00,,2013-06-01 21:53:00,
2013-06-01 18:03:00,86.0,79.0,29.94,SSE,168,5.0,8.0,79,0.00,,,0.00,,2013-06-01 22:03:00,
2013-06-01 18:12:00,85.0,78.0,29.95,SSE,153,4.0,12.0,81,0.00,,,0.00,,2013-06-01 22:12:00,
2013-06-01 18:23:00,85.0,78.0,29.95,SSE,153,4.0,12.0,81,0.00,,,0.00,,2013-06-01 22:23:00,
2013-06-01 18:33:00,85.0,79.0,29.95,SSE,158,5.0,10.0,82,0.00,,,0.00,,2013-06-01 22:33:00,
2013-06-01 18:42:00,85.0,79.0,29.95,South,170,6.0,9.0,83,0.00,,,0.00,,2013-06-01 22:42:00,
2013-06-01 18:53:00,85.0,79.0,29.95,South,170,6.0,9.0,83,0.00,,,0.00,,2013-06-01 22:53:00,
2013-06-01 19:02:00,84.0,78.0,29.96,ESE,123,5.0,10.0,83,0.00,,,0.00,,2013-06-01 23:02:00,
2013-06-01 19:12:00,81.0,76.0,29.97,South,177,21.0,32.0,85,0.00,,,0.00,,2013-06-01 23:12:00,
2013-06-01 19:22:00,81.0,76.0,29.97,South,177,21.0,32.0,85,0.00,,,0.00,,2013-06-01 23:22:00,
2013-06-01 19:32:00,78.0,74.0,29.97,South,172,23.0,33.0,89,0.01,,,0.01,,2013-06-01 23:32:00,
2013-06-01 19:42:00,78.0,74.0,29.97,South,172,23.0,33.0,89,0.01,,,0.01,,2013-06-01 23:42:00,
2013-06-01 19:52:00,78.0,75.0,29.97,SSE,163,17.0,24.0,92,0.02,,,0.02,,2013-06-01 23:52:00,
2013-06-01 20:02:00,77.0,75.0,29.98,SSW,196,16.0,24.0,93,0.04,,,0.04,,2013-06-02 00:02:00,
2013-06-01 20:11:00,77.0,75.0,29.98,SSW,196,16.0,24.0,93,0.04,,,0.04,,2013-06-02 00:11:00,
2013-06-01 20:22:00,76.0,74.0,29.97,SSW,204,18.0,22.0,93,0.49,,,0.49,,2013-06-02 00:22:00,
2013-06-01 20:32:00,76.0,74.0,29.96,SW,231,5.0,18.0,94,0.53,,,0.54,,2013-06-02 00:32:00,
2013-06-01 20:42:00,76.0,74.0,29.96,SW,231,5.0,18.0,94,0.53,,,0.54,,2013-06-02 00:42:00,
2013-06-01 20:52:00,77.0,75.0,29.97,SW,229,4.0,12.0,94,0.54,,,0.56,,2013-06-02 00:52:00,
2013-06-01 21:01:00,77.0,75.0,29.97,WSW,246,6.0,11.0,94,0.53,,,0.57,,2013-06-02 01:01:00,
2013-06-01 21:11:00,77.0,75.0,29.97,WSW,246,6.0,11.0,94,0.53,,,0.57,,2013-06-02 01:11:00,
2013-06-01 21:21:00,77.0,75.0,29.97,West,263,0.0,7.0,94,0.08,,,0.57,,2013-06-02 01:21:00,
2013-06-01 21:32:00,76.0,74.0,29.97,WSW,242,0.0,5.0,93,0.03,,,0.57,,2013-06-02 01:32:00,
2013-06-01 21:42:00,77.0,75.0,29.97,West,267,0.0,1.0,93,0.01,,,0.57,,2013-06-02 01:42:00,
2013-06-01 21:52:00,77.0,75.0,29.97,West,267,0.0,1.0,93,0.01,,,0.57,,2013-06-02 01:52:00,
2013-06-01 22:01:00,77.0,75.0,29.98,West,267,0.0,0.0,93,0.00,,,0.57,,2013-06-02 02:01:00,
2013-06-01 22:12:00,77.0,75.0,29.98,West,267,0.0,0.0,93,0.00,,,0.57,,2013-06-02 02:12:00,
2013-06-01 22:21:00,77.0,75.0,29.98,West,267,0.0,4.0,93,0.00,,,0.57,,2013-06-02 02:21:00,
2013-06-01 22:32:00,77.0,75.0,29.98,West,267,0.0,0.0,93,0.00,,,0.57,,2013-06-02 02:32:00,
2013-06-01 22:42:00,77.0,75.0,29.98,West,267,0.0,0.0,93,0.00,,,0.57,,2013-06-02 02:42:00,
2013-06-01 22:52:00,77.0,75.0,29.98,NNE,32,5.0,7.0,93,0.00,,,0.57,,2013-06-02 02:52:00,
2013-06-01 23:02:00,77.0,75.0,29.98,NNE,31,0.0,5.0,93,0.00,,,0.57,,2013-06-02 03:02:00,
2013-06-01 23:11:00,77.0,75.0,29.98,NNE,31,0.0,5.0,93,0.00,,,0.57,,2013-06-02 03:11:00,
2013-06-01 23:21:00,77.0,75.0,29.98,NNE,31,0.0,0.0,93,0.00,,,0.57,,2013-06-02 03:21:00,
2013-06-01 23:33:00,77.0,75.0,29.98,NNE,31,0.0,0.0,93,0.00,,,0.57,,2013-06-02 03:33:00,
2013-06-01 23:43:00,77.0,75.0,29.98,NNE,31,0.0,0.0,93,0.00,,,0.57,,2013-06-02 03:43:00,
2013-06-01 23:53:00,77.0,75.0,29.97,NNE,31,0.0,0.0,93,0.00,,,0.57,,2013-06-02 03:53:00,